owner,sensor,date,latitude,longitude,vertical_datum,wind_speed,wind_to_direction,wind_speed_of_gust,qcFlag 
TCOON,ioos:station:TCOON:146:1,2017-02-01T00:30:00Z,28.1324,-97.0345,0.0,3.5,224.0,4.2,'1111122,1111122,1111122' 
TCOON,ioos:station:TCOON:146:1,2017-02-01T02:30:00Z,28.1324,-97.0345,0.0,4.8,236.0,5.5,'1111122,1111122,1111122' 
TCOON,ioos:station:TCOON:146:1,2017-02-01T04:30:00Z,28.1324,-97.0345,0.0,4.4,244.0,5.3,'1111122,1111122,1111122' 
TCOON,ioos:station:TCOON:146:1,2017-02-01T05:30:00Z,28.1324,-97.0345,0.0,3.9,248.0,5.0,'1111122,1111122,1111122' 
TCOON,ioos:station:TCOON:146:1,2017-02-01T07:30:00Z,28.1324,-97.0345,0.0,4.0,243.0,4.9,'1111122,1111122,1111122' 
TCOON,ioos:station:TCOON:146:1,2017-02-01T09:30:00Z,28.1324,-97.0345,0.0,3.8,246.0,4.6,'1111122,1111122,1111122' 
TCOON,ioos:station:TCOON:146:1,2017-02-01T10:30:00Z,28.1324,-97.0345,0.0,3.4,243.0,4.1,'1111122,1111122,1111122' 
TCOON,ioos:station:TCOON:146:1,2017-02-01T12:30:00Z,28.1324,-97.0345,0.0,3.3,242.0,4.2,'1111122,1111122,1111122' 
TCOON,ioos:station:TCOON:146:1,2017-02-01T14:30:00Z,28.1324,-97.0345,0.0,3.6,256.0,4.6,'1111122,1111122,1111122' 
TCOON,ioos:station:TCOON:146:1,2017-02-01T16:30:00Z,28.1324,-97.0345,0.0,4.6,261.0,6.8,'1111122,1111122,1111122' 
TCOON,ioos:station:TCOON:146:1,2017-02-01T17:30:00Z,28.1324,-97.0345,0.0,3.7,225.0,5.0,'1111122,1111122,1111122' 
TCOON,ioos:station:TCOON:146:1,2017-02-01T18:30:00Z,28.1324,-97.0345,0.0,4.3,225.0,5.1,'1111122,1111122,1111122' 
TCOON,ioos:station:TCOON:146:1,2017-02-01T19:30:00Z,28.1324,-97.0345,0.0,4.7,236.0,6.1,'1111122,1111122,1111122' 
TCOON,ioos:station:TCOON:146:1,2017-02-01T21:30:00Z,28.1324,-97.0345,0.0,4.6,226.0,5.4,'1111122,1111122,1111122' 
TCOON,ioos:station:TCOON:146:1,2017-02-01T22:30:00Z,28.1324,-97.0345,0.0,5.0,228.0,6.1,'1111122,1111122,1111122' 
TCOON,ioos:station:TCOON:146:1,2017-02-02T08:30:00Z,28.1324,-97.0345,0.0,3.6,245.0,4.4,'1111122,1111122,1111122' 
TCOON,ioos:station:TCOON:146:1,2017-02-02T10:30:00Z,28.1324,-97.0345,0.0,3.5,229.0,4.3,'1111122,1111122,1111122' 
TCOON,ioos:station:TCOON:146:1,2017-02-02T11:30:00Z,28.1324,-97.0345,0.0,2.2,224.0,2.5,'1111122,1111122,1111122' 
TCOON,ioos:station:TCOON:146:1,2017-02-02T12:30:00Z,28.1324,-97.0345,0.0,1.5,216.0,1.7,'1111122,1111122,1111122' 
TCOON,ioos:station:TCOON:146:1,2017-02-02T15:30:00Z,28.1324,-97.0345,0.0,3.2,86.0,3.9,'1111122,1111122,1111122' 
TCOON,ioos:station:TCOON:146:1,2017-02-02T16:30:00Z,28.1324,-97.0345,0.0,3.2,89.0,3.7,'1111122,1111122,1111122' 
TCOON,ioos:station:TCOON:146:1,2017-02-02T19:30:00Z,28.1324,-97.0345,0.0,3.4,81.0,3.8,'1111122,1111122,1111122' 
TCOON,ioos:station:TCOON:146:1,2017-02-02T20:30:00Z,28.1324,-97.0345,0.0,4.1,79.0,5.0,'1111122,1111122,1111122' 
TCOON,ioos:station:TCOON:146:1,2017-02-02T21:30:00Z,28.1324,-97.0345,0.0,4.0,82.0,5.0,'1111122,1111122,1111122' 
TCOON,ioos:station:TCOON:146:1,2017-02-02T22:30:00Z,28.1324,-97.0345,0.0,4.6,108.0,5.7,'1111122,1111122,1111122' 
TCOON,ioos:station:TCOON:146:1,2017-02-02T23:30:00Z,28.1324,-97.0345,0.0,4.7,85.0,5.5,'1111122,1111122,1111122' 
TCOON,ioos:station:TCOON:146:1,2017-02-03T00:30:00Z,28.1324,-97.0345,0.0,4.9,86.0,5.7,'1111122,1111122,1111122' 
TCOON,ioos:station:TCOON:146:1,2017-02-03T03:30:00Z,28.1324,-97.0345,0.0,5.4,90.0,6.5,'1111122,1111122,1111122' 
TCOON,ioos:station:TCOON:146:1,2017-02-03T04:30:00Z,28.1324,-97.0345,0.0,5.7,95.0,7.2,'1111122,1111122,1111122' 
TCOON,ioos:station:TCOON:146:1,2017-02-03T06:30:00Z,28.1324,-97.0345,0.0,4.6,103.0,5.6,'1111122,1111122,1111122' 
TCOON,ioos:station:TCOON:146:1,2017-02-03T08:30:00Z,28.1324,-97.0345,0.0,4.5,99.0,5.6,'1111122,1111122,1111122' 
TCOON,ioos:station:TCOON:146:1,2017-02-03T09:30:00Z,28.1324,-97.0345,0.0,4.4,91.0,5.4,'1111122,1111122,1111122' 
TCOON,ioos:station:TCOON:146:1,2017-02-03T11:30:00Z,28.1324,-97.0345,0.0,4.9,98.0,5.9,'1111122,1111122,1111122' 
TCOON,ioos:station:TCOON:146:1,2017-02-03T12:30:00Z,28.1324,-97.0345,0.0,4.4,96.0,5.3,'1111122,1111122,1111122' 
TCOON,ioos:station:TCOON:146:1,2017-02-03T13:30:00Z,28.1324,-97.0345,0.0,4.8,85.0,5.7,'1111122,1111122,1111122' 
TCOON,ioos:station:TCOON:146:1,2017-02-03T14:30:00Z,28.1324,-97.0345,0.0,5.6,95.0,7.2,'1111122,1111122,1111122' 
TCOON,ioos:station:TCOON:146:1,2017-02-03T15:30:00Z,28.1324,-97.0345,0.0,5.8,93.0,7.0,'1111122,1111122,1111122' 
TCOON,ioos:station:TCOON:146:1,2017-02-03T16:30:00Z,28.1324,-97.0345,0.0,5.7,103.0,6.8,'1111122,1111122,1111122' 
TCOON,ioos:station:TCOON:146:1,2017-02-03T17:30:00Z,28.1324,-97.0345,0.0,5.5,106.0,6.9,'1111122,1111122,1111122' 
TCOON,ioos:station:TCOON:146:1,2017-02-03T18:30:00Z,28.1324,-97.0345,0.0,5.1,113.0,6.4,'1111122,1111122,1111122' 
TCOON,ioos:station:TCOON:146:1,2017-02-03T19:30:00Z,28.1324,-97.0345,0.0,4.5,103.0,5.8,'1111122,1111122,1111122' 
TCOON,ioos:station:TCOON:146:1,2017-02-03T20:30:00Z,28.1324,-97.0345,0.0,4.6,112.0,5.8,'1111122,1111122,1111122' 
TCOON,ioos:station:TCOON:146:1,2017-02-03T21:30:00Z,28.1324,-97.0345,0.0,5.1,108.0,6.2,'1111122,1111122,1111122' 
TCOON,ioos:station:TCOON:146:1,2017-02-03T22:30:00Z,28.1324,-97.0345,0.0,4.8,112.0,5.7,'1111122,1111122,1111122' 
TCOON,ioos:station:TCOON:146:1,2017-02-03T23:30:00Z,28.1324,-97.0345,0.0,4.1,119.0,4.9,'1111122,1111122,1111122' 
TCOON,ioos:station:TCOON:146:1,2017-02-04T00:30:00Z,28.1324,-97.0345,0.0,4.1,117.0,5.0,'1111122,1111122,1111122' 
TCOON,ioos:station:TCOON:146:1,2017-02-04T01:30:00Z,28.1324,-97.0345,0.0,4.4,115.0,5.0,'1111122,1111122,1111122' 
TCOON,ioos:station:TCOON:146:1,2017-02-04T02:30:00Z,28.1324,-97.0345,0.0,4.3,112.0,5.0,'1111122,1111122,1111122' 
TCOON,ioos:station:TCOON:146:1,2017-02-04T03:30:00Z,28.1324,-97.0345,0.0,4.0,126.0,4.9,'1111122,1111122,1111122' 
TCOON,ioos:station:TCOON:146:1,2017-02-04T05:30:00Z,28.1324,-97.0345,0.0,4.0,104.0,5.1,'1111122,1111122,1111122' 
TCOON,ioos:station:TCOON:146:1,2017-02-04T06:30:00Z,28.1324,-97.0345,0.0,4.3,95.0,5.1,'1111122,1111122,1111122' 
TCOON,ioos:station:TCOON:146:1,2017-02-04T07:30:00Z,28.1324,-97.0345,0.0,4.4,96.0,5.1,'1111122,1111122,1111122' 
TCOON,ioos:station:TCOON:146:1,2017-02-04T08:30:00Z,28.1324,-97.0345,0.0,4.5,88.0,5.2,'1111122,1111122,1111122' 
TCOON,ioos:station:TCOON:146:1,2017-02-04T09:30:00Z,28.1324,-97.0345,0.0,4.3,117.0,5.0,'1111122,1111122,1111122' 
TCOON,ioos:station:TCOON:146:1,2017-02-04T10:30:00Z,28.1324,-97.0345,0.0,4.2,122.0,5.0,'1111122,1111122,1111122' 
TCOON,ioos:station:TCOON:146:1,2017-02-04T12:30:00Z,28.1324,-97.0345,0.0,3.9,124.0,5.0,'1111122,1111122,1111122' 
TCOON,ioos:station:TCOON:146:1,2017-02-04T13:30:00Z,28.1324,-97.0345,0.0,3.5,135.0,4.4,'1111122,1111122,1111122' 
TCOON,ioos:station:TCOON:146:1,2017-02-04T14:30:00Z,28.1324,-97.0345,0.0,3.9,146.0,4.9,'1111122,1111122,1111122' 
TCOON,ioos:station:TCOON:146:1,2017-02-04T16:30:00Z,28.1324,-97.0345,0.0,4.7,136.0,5.6,'1111122,1111122,1111122' 
TCOON,ioos:station:TCOON:146:1,2017-02-04T17:30:00Z,28.1324,-97.0345,0.0,4.9,127.0,5.8,'1111122,1111122,1111122' 
TCOON,ioos:station:TCOON:146:1,2017-02-04T18:30:00Z,28.1324,-97.0345,0.0,5.2,126.0,6.5,'1111122,1111122,1111122' 
TCOON,ioos:station:TCOON:146:1,2017-02-04T19:30:00Z,28.1324,-97.0345,0.0,4.6,126.0,5.9,'1111122,1111122,1111122' 
TCOON,ioos:station:TCOON:146:1,2017-02-04T20:30:00Z,28.1324,-97.0345,0.0,4.7,128.0,6.0,'1111122,1111122,1111122' 
TCOON,ioos:station:TCOON:146:1,2017-02-04T22:30:00Z,28.1324,-97.0345,0.0,3.7,139.0,4.7,'1111122,1111122,1111122' 
TCOON,ioos:station:TCOON:146:1,2017-02-05T03:30:00Z,28.1324,-97.0345,0.0,3.1,221.0,4.0,'1111122,1111122,1111122' 
TCOON,ioos:station:TCOON:146:1,2017-02-05T04:30:00Z,28.1324,-97.0345,0.0,4.1,243.0,4.6,'1111122,1111122,1111122' 
TCOON,ioos:station:TCOON:146:1,2017-02-05T06:30:00Z,28.1324,-97.0345,0.0,3.4,236.0,4.2,'1111122,1111122,1111122' 
TCOON,ioos:station:TCOON:146:1,2017-02-05T07:30:00Z,28.1324,-97.0345,0.0,3.9,227.0,4.2,'1111122,1111122,1111122' 
TCOON,ioos:station:TCOON:146:1,2017-02-05T10:30:00Z,28.1324,-97.0345,0.0,2.5,224.0,2.8,'1111122,1111122,1111122' 
TCOON,ioos:station:TCOON:146:1,2017-02-05T11:30:00Z,28.1324,-97.0345,0.0,1.2,194.0,1.5,'1111122,1111122,1111122' 
TCOON,ioos:station:TCOON:146:1,2017-02-05T12:30:00Z,28.1324,-97.0345,0.0,1.6,193.0,1.8,'1111122,1111122,1111122' 
TCOON,ioos:station:TCOON:146:1,2017-02-05T13:30:00Z,28.1324,-97.0345,0.0,1.1,309.0,1.3,'1111122,1111122,1111122' 
TCOON,ioos:station:TCOON:146:1,2017-02-05T16:30:00Z,28.1324,-97.0345,0.0,1.8,199.0,2.8,'1111122,1111122,1111122' 
TCOON,ioos:station:TCOON:146:1,2017-02-05T17:30:00Z,28.1324,-97.0345,0.0,3.6,220.0,4.2,'1111122,1111122,1111122' 
TCOON,ioos:station:TCOON:146:1,2017-02-05T19:30:00Z,28.1324,-97.0345,0.0,4.0,235.0,5.3,'1111122,1111122,1111122' 
TCOON,ioos:station:TCOON:146:1,2017-02-05T20:30:00Z,28.1324,-97.0345,0.0,4.1,228.0,4.8,'1111122,1111122,1111122' 
TCOON,ioos:station:TCOON:146:1,2017-02-05T21:30:00Z,28.1324,-97.0345,0.0,4.1,223.0,4.6,'1111122,1111122,1111122' 
TCOON,ioos:station:TCOON:146:1,2017-02-05T22:30:00Z,28.1324,-97.0345,0.0,3.8,212.0,4.3,'1111122,1111122,1111122' 
TCOON,ioos:station:TCOON:146:1,2017-02-05T23:30:00Z,28.1324,-97.0345,0.0,3.3,207.0,4.0,'1111122,1111122,1111122' 
TCOON,ioos:station:TCOON:146:1,2017-02-06T10:30:00Z,28.1324,-97.0345,0.0,2.7,215.0,3.2,'1111122,1111122,1111122' 
TCOON,ioos:station:TCOON:146:1,2017-02-06T11:30:00Z,28.1324,-97.0345,0.0,2.9,218.0,3.5,'1111122,1111122,1111122' 
TCOON,ioos:station:TCOON:146:1,2017-02-07T21:30:00Z,28.1324,-97.0345,0.0,3.1,220.0,3.9,'1111122,1111122,1111122' 
TCOON,ioos:station:TCOON:146:1,2017-02-08T01:30:00Z,28.1324,-97.0345,0.0,4.0,241.0,4.5,'1111122,1111122,1111122' 
TCOON,ioos:station:TCOON:146:1,2017-02-08T08:30:00Z,28.1324,-97.0345,0.0,3.2,268.0,4.0,'1111122,1111122,1111122' 
TCOON,ioos:station:TCOON:146:1,2017-02-12T17:30:00Z,28.1324,-97.0345,0.0,4.2,224.0,4.9,'1111122,1111122,1111122' 
TCOON,ioos:station:TCOON:146:1,2017-02-12T18:30:00Z,28.1324,-97.0345,0.0,3.4,222.0,4.0,'1111122,1111122,1111122' 
TCOON,ioos:station:TCOON:146:1,2017-02-12T22:30:00Z,28.1324,-97.0345,0.0,3.7,192.0,4.4,'1111122,1111122,1111122' 
TCOON,ioos:station:TCOON:146:1,2017-02-13T07:30:00Z,28.1324,-97.0345,0.0,4.6,179.0,5.6,'1111122,1111122,1111122' 
TCOON,ioos:station:TCOON:146:1,2017-02-14T13:30:00Z,28.1324,-97.0345,0.0,6.3,249.0,7.8,'1111122,1111122,1111122' 
TCOON,ioos:station:TCOON:146:1,2017-02-14T17:30:00Z,28.1324,-97.0345,0.0,4.5,37.0,5.9,'1111122,1111122,1111122' 
TCOON,ioos:station:TCOON:146:1,2017-02-15T15:30:00Z,28.1324,-97.0345,0.0,6.6,46.0,8.3,'1111122,1111122,1111122' 
TCOON,ioos:station:TCOON:146:1,2017-02-16T18:30:00Z,28.1324,-97.0345,0.0,1.9,195.0,2.5,'1111122,1111122,1111122' 
TCOON,ioos:station:TCOON:146:1,2017-02-16T20:30:00Z,28.1324,-97.0345,0.0,3.1,213.0,3.7,'1111122,1111122,1111122' 
TCOON,ioos:station:TCOON:146:1,2017-02-16T21:30:00Z,28.1324,-97.0345,0.0,3.1,218.0,3.9,'1111122,1111122,1111122' 
TCOON,ioos:station:TCOON:146:1,2017-02-17T01:30:00Z,28.1324,-97.0345,0.0,3.7,203.0,4.4,'1111122,1111122,1111122' 
TCOON,ioos:station:TCOON:146:1,2017-02-17T02:30:00Z,28.1324,-97.0345,0.0,3.0,207.0,4.0,'1111122,1111122,1111122' 
TCOON,ioos:station:TCOON:146:1,2017-02-17T03:30:00Z,28.1324,-97.0345,0.0,2.9,204.0,3.4,'1111122,1111122,1111122' 
TCOON,ioos:station:TCOON:146:1,2017-02-17T04:30:00Z,28.1324,-97.0345,0.0,3.0,211.0,3.7,'1111122,1111122,1111122' 
TCOON,ioos:station:TCOON:146:1,2017-02-17T05:30:00Z,28.1324,-97.0345,0.0,3.3,220.0,3.8,'1111122,1111122,1111122' 
TCOON,ioos:station:TCOON:146:1,2017-02-17T06:30:00Z,28.1324,-97.0345,0.0,3.1,219.0,3.8,'1111122,1111122,1111122' 
TCOON,ioos:station:TCOON:146:1,2017-02-17T07:30:00Z,28.1324,-97.0345,0.0,3.4,223.0,3.9,'1111122,1111122,1111122' 
TCOON,ioos:station:TCOON:146:1,2017-02-17T08:30:00Z,28.1324,-97.0345,0.0,2.6,254.0,3.4,'1111122,1111122,1111122' 
TCOON,ioos:station:TCOON:146:1,2017-02-17T09:30:00Z,28.1324,-97.0345,0.0,2.8,331.0,3.8,'1111122,1111122,1111122' 
TCOON,ioos:station:TCOON:146:1,2017-02-17T10:30:00Z,28.1324,-97.0345,0.0,3.6,318.0,4.9,'1111122,1111122,1111122' 
TCOON,ioos:station:TCOON:146:1,2017-02-17T11:30:00Z,28.1324,-97.0345,0.0,3.4,259.0,4.0,'1111122,1111122,1111122' 
TCOON,ioos:station:TCOON:146:1,2017-02-17T12:30:00Z,28.1324,-97.0345,0.0,2.7,246.0,3.8,'1111122,1111122,1111122' 
TCOON,ioos:station:TCOON:146:1,2017-02-17T13:30:00Z,28.1324,-97.0345,0.0,3.5,234.0,4.2,'1111122,1111122,1111122' 
TCOON,ioos:station:TCOON:146:1,2017-02-17T14:30:00Z,28.1324,-97.0345,0.0,3.5,227.0,4.1,'1111122,1111122,1111122' 
TCOON,ioos:station:TCOON:146:1,2017-02-17T17:30:00Z,28.1324,-97.0345,0.0,3.0,85.0,3.4,'1111122,1111122,1111122' 
TCOON,ioos:station:TCOON:146:1,2017-02-17T18:30:00Z,28.1324,-97.0345,0.0,3.1,75.0,4.0,'1111122,1111122,1111122' 
TCOON,ioos:station:TCOON:146:1,2017-02-17T19:30:00Z,28.1324,-97.0345,0.0,4.4,222.0,5.7,'1111122,1111122,1111122' 
TCOON,ioos:station:TCOON:146:1,2017-02-17T20:30:00Z,28.1324,-97.0345,0.0,4.4,224.0,5.4,'1111122,1111122,1111122' 
TCOON,ioos:station:TCOON:146:1,2017-02-17T21:30:00Z,28.1324,-97.0345,0.0,3.5,226.0,4.3,'1111122,1111122,1111122' 
TCOON,ioos:station:TCOON:146:1,2017-02-17T22:30:00Z,28.1324,-97.0345,0.0,3.1,214.0,3.6,'1111122,1111122,1111122' 
TCOON,ioos:station:TCOON:146:1,2017-02-18T02:30:00Z,28.1324,-97.0345,0.0,4.2,175.0,4.7,'1111122,1111122,1111122' 
TCOON,ioos:station:TCOON:146:1,2017-02-18T03:30:00Z,28.1324,-97.0345,0.0,3.8,179.0,4.8,'1111122,1111122,1111122' 
TCOON,ioos:station:TCOON:146:1,2017-02-18T04:30:00Z,28.1324,-97.0345,0.0,3.8,174.0,4.8,'1111122,1111122,1111122' 
TCOON,ioos:station:TCOON:146:1,2017-02-18T05:30:00Z,28.1324,-97.0345,0.0,4.5,192.0,4.8,'1111122,1111122,1111122' 
TCOON,ioos:station:TCOON:146:1,2017-02-18T06:30:00Z,28.1324,-97.0345,0.0,3.8,204.0,4.5,'1111122,1111122,1111122' 
TCOON,ioos:station:TCOON:146:1,2017-02-18T07:30:00Z,28.1324,-97.0345,0.0,4.1,215.0,4.9,'1111122,1111122,1111122' 
TCOON,ioos:station:TCOON:146:1,2017-02-18T08:30:00Z,28.1324,-97.0345,0.0,3.9,228.0,4.9,'1111122,1111122,1111122' 
TCOON,ioos:station:TCOON:146:1,2017-02-18T09:30:00Z,28.1324,-97.0345,0.0,4.0,240.0,5.0,'1111122,1111122,1111122' 
TCOON,ioos:station:TCOON:146:1,2017-02-18T10:30:00Z,28.1324,-97.0345,0.0,4.2,246.0,5.0,'1111122,1111122,1111122' 
TCOON,ioos:station:TCOON:146:1,2017-02-18T11:30:00Z,28.1324,-97.0345,0.0,3.8,258.0,4.9,'1111122,1111122,1111122' 
TCOON,ioos:station:TCOON:146:1,2017-02-18T12:30:00Z,28.1324,-97.0345,0.0,3.7,261.0,5.0,'1111122,1111122,1111122' 
TCOON,ioos:station:TCOON:146:1,2017-02-18T13:30:00Z,28.1324,-97.0345,0.0,4.1,265.0,5.2,'1111122,1111122,1111122' 
TCOON,ioos:station:TCOON:146:1,2017-02-18T14:30:00Z,28.1324,-97.0345,0.0,3.5,271.0,4.4,'1111122,1111122,1111122' 
TCOON,ioos:station:TCOON:146:1,2017-02-18T15:30:00Z,28.1324,-97.0345,0.0,4.1,256.0,4.9,'1111122,1111122,1111122' 
TCOON,ioos:station:TCOON:146:1,2017-02-18T16:30:00Z,28.1324,-97.0345,0.0,3.2,256.0,4.7,'1111122,1111122,1111122' 
TCOON,ioos:station:TCOON:146:1,2017-02-18T17:30:00Z,28.1324,-97.0345,0.0,4.5,264.0,5.6,'1111122,1111122,1111122' 
TCOON,ioos:station:TCOON:146:1,2017-02-18T18:30:00Z,28.1324,-97.0345,0.0,4.1,249.0,4.8,'1111122,1111122,1111122' 
TCOON,ioos:station:TCOON:146:1,2017-02-18T19:30:00Z,28.1324,-97.0345,0.0,4.6,222.0,5.2,'1111122,1111122,1111122' 
TCOON,ioos:station:TCOON:146:1,2017-02-18T20:30:00Z,28.1324,-97.0345,0.0,4.2,224.0,4.9,'1111122,1111122,1111122' 
TCOON,ioos:station:TCOON:146:1,2017-02-18T21:30:00Z,28.1324,-97.0345,0.0,3.6,216.0,4.6,'1111122,1111122,1111122' 
TCOON,ioos:station:TCOON:146:1,2017-02-18T22:30:00Z,28.1324,-97.0345,0.0,3.9,200.0,4.8,'1111122,1111122,1111122' 
TCOON,ioos:station:TCOON:146:1,2017-02-18T23:30:00Z,28.1324,-97.0345,0.0,3.7,188.0,4.2,'1111122,1111122,1111122' 
TCOON,ioos:station:TCOON:146:1,2017-02-19T00:30:00Z,28.1324,-97.0345,0.0,3.7,188.0,4.5,'1111122,1111122,1111122' 
TCOON,ioos:station:TCOON:146:1,2017-02-19T01:30:00Z,28.1324,-97.0345,0.0,4.4,186.0,5.3,'1111122,1111122,1111122' 
TCOON,ioos:station:TCOON:146:1,2017-02-19T02:30:00Z,28.1324,-97.0345,0.0,3.8,191.0,4.5,'1111122,1111122,1111122' 
TCOON,ioos:station:TCOON:146:1,2017-02-19T03:30:00Z,28.1324,-97.0345,0.0,3.4,201.0,4.2,'1111122,1111122,1111122' 
TCOON,ioos:station:TCOON:146:1,2017-02-19T04:30:00Z,28.1324,-97.0345,0.0,3.9,218.0,4.5,'1111122,1111122,1111122' 
TCOON,ioos:station:TCOON:146:1,2017-02-19T05:30:00Z,28.1324,-97.0345,0.0,2.9,219.0,3.4,'1111122,1111122,1111122' 
TCOON,ioos:station:TCOON:146:1,2017-02-19T06:30:00Z,28.1324,-97.0345,0.0,3.4,198.0,4.0,'1111122,1111122,1111122' 
TCOON,ioos:station:TCOON:146:1,2017-02-19T07:30:00Z,28.1324,-97.0345,0.0,4.1,201.0,5.2,'1111122,1111122,1111122' 
TCOON,ioos:station:TCOON:146:1,2017-02-19T08:30:00Z,28.1324,-97.0345,0.0,4.4,206.0,5.0,'1111122,1111122,1111122' 
TCOON,ioos:station:TCOON:146:1,2017-02-19T09:30:00Z,28.1324,-97.0345,0.0,4.0,197.0,4.8,'1111122,1111122,1111122' 
TCOON,ioos:station:TCOON:146:1,2017-02-19T10:30:00Z,28.1324,-97.0345,0.0,2.8,200.0,3.3,'1111122,1111122,1111122' 
TCOON,ioos:station:TCOON:146:1,2017-02-19T11:30:00Z,28.1324,-97.0345,0.0,3.8,187.0,4.9,'1111122,1111122,1111122' 
TCOON,ioos:station:TCOON:146:1,2017-02-19T12:30:00Z,28.1324,-97.0345,0.0,3.2,191.0,4.1,'1111122,1111122,1111122' 
TCOON,ioos:station:TCOON:146:1,2017-02-19T13:30:00Z,28.1324,-97.0345,0.0,4.4,177.0,5.3,'1111122,1111122,1111122' 
TCOON,ioos:station:TCOON:146:1,2017-02-19T14:30:00Z,28.1324,-97.0345,0.0,4.9,175.0,6.0,'1111122,1111122,1111122' 
TCOON,ioos:station:TCOON:146:1,2017-02-19T15:30:00Z,28.1324,-97.0345,0.0,4.8,183.0,6.0,'1111122,1111122,1111122' 
TCOON,ioos:station:TCOON:146:1,2017-02-19T16:30:00Z,28.1324,-97.0345,0.0,5.6,187.0,7.2,'1111122,1111122,1111122' 
TCOON,ioos:station:TCOON:146:1,2017-02-19T17:30:00Z,28.1324,-97.0345,0.0,5.8,187.0,7.3,'1111122,1111122,1111122' 
TCOON,ioos:station:TCOON:146:1,2017-02-19T18:30:00Z,28.1324,-97.0345,0.0,4.7,192.0,6.1,'1111122,1111122,1111122' 
TCOON,ioos:station:TCOON:146:1,2017-02-19T19:30:00Z,28.1324,-97.0345,0.0,4.9,189.0,6.3,'1111122,1111122,1111122' 
TCOON,ioos:station:TCOON:146:1,2017-02-19T20:30:00Z,28.1324,-97.0345,0.0,4.8,195.0,6.3,'1111122,1111122,1111122' 
TCOON,ioos:station:TCOON:146:1,2017-02-19T21:30:00Z,28.1324,-97.0345,0.0,5.8,185.0,7.0,'1111122,1111122,1111122' 
TCOON,ioos:station:TCOON:146:1,2017-02-19T22:30:00Z,28.1324,-97.0345,0.0,5.0,184.0,6.2,'1111122,1111122,1111122' 
TCOON,ioos:station:TCOON:146:1,2017-02-19T23:30:00Z,28.1324,-97.0345,0.0,5.2,187.0,6.5,'1111122,1111122,1111122' 
TCOON,ioos:station:TCOON:146:1,2017-02-20T00:30:00Z,28.1324,-97.0345,0.0,4.1,186.0,4.8,'1111122,1111122,1111122' 
TCOON,ioos:station:TCOON:146:1,2017-02-20T01:30:00Z,28.1324,-97.0345,0.0,4.3,181.0,5.4,'1111122,1111122,1111122' 
TCOON,ioos:station:TCOON:146:1,2017-02-20T02:30:00Z,28.1324,-97.0345,0.0,4.7,183.0,6.0,'1111122,1111122,1111122' 
TCOON,ioos:station:TCOON:146:1,2017-02-20T03:30:00Z,28.1324,-97.0345,0.0,5.4,183.0,6.8,'1111122,1111122,1111122' 
TCOON,ioos:station:TCOON:146:1,2017-02-20T04:30:00Z,28.1324,-97.0345,0.0,3.4,187.0,4.7,'1111122,1111122,1111122' 
TCOON,ioos:station:TCOON:146:1,2017-02-20T05:30:00Z,28.1324,-97.0345,0.0,3.6,347.0,4.7,'1111122,1111122,1111122' 
TCOON,ioos:station:TCOON:146:1,2017-02-20T06:30:00Z,28.1324,-97.0345,0.0,3.0,305.0,3.7,'1111122,1111122,1111122' 
TCOON,ioos:station:TCOON:146:1,2017-02-20T07:30:00Z,28.1324,-97.0345,0.0,1.1,164.0,1.5,'1111122,1111122,1111122' 
TCOON,ioos:station:TCOON:146:1,2017-02-20T08:30:00Z,28.1324,-97.0345,0.0,2.2,168.0,2.5,'1111122,1111122,1111122' 
TCOON,ioos:station:TCOON:146:1,2017-02-20T09:30:00Z,28.1324,-97.0345,0.0,2.4,204.0,2.8,'1111122,1111122,1111122' 
TCOON,ioos:station:TCOON:146:1,2017-02-20T10:30:00Z,28.1324,-97.0345,0.0,3.0,140.0,8.9,'1111122,1111122,1111122' 
TCOON,ioos:station:TCOON:146:1,2017-02-20T11:30:00Z,28.1324,-97.0345,0.0,5.3,59.0,6.4,'1111122,1111122,1111122' 
TCOON,ioos:station:TCOON:146:1,2017-02-20T12:30:00Z,28.1324,-97.0345,0.0,4.9,108.0,5.8,'1111122,1111122,1111122' 
TCOON,ioos:station:TCOON:146:1,2017-02-20T13:30:00Z,28.1324,-97.0345,0.0,4.8,126.0,5.8,'1111122,1111122,1111122' 
TCOON,ioos:station:TCOON:146:1,2017-02-20T14:30:00Z,28.1324,-97.0345,0.0,3.3,120.0,4.1,'1111122,1111122,1111122' 
TCOON,ioos:station:TCOON:146:1,2017-02-20T15:30:00Z,28.1324,-97.0345,0.0,3.5,108.0,4.3,'1111122,1111122,1111122' 
TCOON,ioos:station:TCOON:146:1,2017-02-20T16:30:00Z,28.1324,-97.0345,0.0,3.9,127.0,4.7,'1111122,1111122,1111122' 
TCOON,ioos:station:TCOON:146:1,2017-02-20T17:30:00Z,28.1324,-97.0345,0.0,5.1,136.0,6.1,'1111122,1111122,1111122' 
TCOON,ioos:station:TCOON:146:1,2017-02-20T18:30:00Z,28.1324,-97.0345,0.0,1.9,89.0,2.6,'1111122,1111122,1111122' 
TCOON,ioos:station:TCOON:146:1,2017-02-20T19:30:00Z,28.1324,-97.0345,0.0,3.4,160.0,4.4,'1111122,1111122,1111122' 
TCOON,ioos:station:TCOON:146:1,2017-02-20T20:30:00Z,28.1324,-97.0345,0.0,3.5,188.0,4.7,'1111122,1111122,1111122' 
TCOON,ioos:station:TCOON:146:1,2017-02-20T21:30:00Z,28.1324,-97.0345,0.0,2.7,188.0,4.3,'1111122,1111122,1111122' 
TCOON,ioos:station:TCOON:146:1,2017-02-20T22:30:00Z,28.1324,-97.0345,0.0,0.5,115.0,1.5,'1111122,1111122,1111122' 
TCOON,ioos:station:TCOON:146:1,2017-02-20T23:30:00Z,28.1324,-97.0345,0.0,1.0,204.0,1.8,'1111122,1111122,1111122' 
TCOON,ioos:station:TCOON:146:1,2017-02-21T00:30:00Z,28.1324,-97.0345,0.0,2.7,214.0,3.7,'1111122,1111122,1111122' 
TCOON,ioos:station:TCOON:146:1,2017-02-21T01:30:00Z,28.1324,-97.0345,0.0,3.3,207.0,4.6,'1111122,1111122,1111122' 
TCOON,ioos:station:TCOON:146:1,2017-02-21T02:30:00Z,28.1324,-97.0345,0.0,3.8,214.0,4.7,'1111122,1111122,1111122' 
TCOON,ioos:station:TCOON:146:1,2017-02-21T03:30:00Z,28.1324,-97.0345,0.0,3.8,224.0,4.8,'1111122,1111122,1111122' 
TCOON,ioos:station:TCOON:146:1,2017-02-21T04:30:00Z,28.1324,-97.0345,0.0,3.7,238.0,4.9,'1111122,1111122,1111122' 
TCOON,ioos:station:TCOON:146:1,2017-02-21T05:30:00Z,28.1324,-97.0345,0.0,3.5,244.0,4.4,'1111122,1111122,1111122' 
TCOON,ioos:station:TCOON:146:1,2017-02-21T06:30:00Z,28.1324,-97.0345,0.0,4.2,238.0,4.9,'1111122,1111122,1111122' 
TCOON,ioos:station:TCOON:146:1,2017-02-21T07:30:00Z,28.1324,-97.0345,0.0,3.7,268.0,4.5,'1111122,1111122,1111122' 
TCOON,ioos:station:TCOON:146:1,2017-02-21T08:30:00Z,28.1324,-97.0345,0.0,4.8,290.0,6.0,'1111122,1111122,1111122' 
TCOON,ioos:station:TCOON:146:1,2017-02-21T09:30:00Z,28.1324,-97.0345,0.0,6.6,295.0,7.9,'1111122,1111122,1111122' 
TCOON,ioos:station:TCOON:146:1,2017-02-21T10:30:00Z,28.1324,-97.0345,0.0,5.6,303.0,6.8,'1111122,1111122,1111122' 
TCOON,ioos:station:TCOON:146:1,2017-02-21T11:30:00Z,28.1324,-97.0345,0.0,5.8,320.0,6.8,'1111122,1111122,1111122' 
TCOON,ioos:station:TCOON:146:1,2017-02-21T12:30:00Z,28.1324,-97.0345,0.0,5.8,341.0,7.2,'1111122,1111122,1111122' 
TCOON,ioos:station:TCOON:146:1,2017-02-21T13:30:00Z,28.1324,-97.0345,0.0,5.8,358.0,7.2,'1111122,1111122,1111122' 
TCOON,ioos:station:TCOON:146:1,2017-02-21T14:30:00Z,28.1324,-97.0345,0.0,6.5,2.0,8.1,'1111122,1111122,1111122' 
TCOON,ioos:station:TCOON:146:1,2017-02-21T15:30:00Z,28.1324,-97.0345,0.0,6.1,6.0,7.2,'1111122,1111122,1111122' 
TCOON,ioos:station:TCOON:146:1,2017-02-21T16:30:00Z,28.1324,-97.0345,0.0,4.7,23.0,5.9,'1111122,1111122,1111122' 
TCOON,ioos:station:TCOON:146:1,2017-02-21T17:30:00Z,28.1324,-97.0345,0.0,4.5,15.0,5.2,'1111122,1111122,1111122' 
TCOON,ioos:station:TCOON:146:1,2017-02-21T18:30:00Z,28.1324,-97.0345,0.0,6.1,27.0,7.4,'1111122,1111122,1111122' 
TCOON,ioos:station:TCOON:146:1,2017-02-21T19:30:00Z,28.1324,-97.0345,0.0,5.9,30.0,7.2,'1111122,1111122,1111122' 
TCOON,ioos:station:TCOON:146:1,2017-02-21T20:30:00Z,28.1324,-97.0345,0.0,5.6,22.0,7.3,'1111122,1111122,1111122' 
TCOON,ioos:station:TCOON:146:1,2017-02-21T21:30:00Z,28.1324,-97.0345,0.0,4.7,29.0,6.3,'1111122,1111122,1111122' 
TCOON,ioos:station:TCOON:146:1,2017-02-21T22:30:00Z,28.1324,-97.0345,0.0,4.3,52.0,5.0,'1111122,1111122,1111122' 
TCOON,ioos:station:TCOON:146:1,2017-02-21T23:30:00Z,28.1324,-97.0345,0.0,4.4,63.0,5.0,'1111122,1111122,1111122' 
TCOON,ioos:station:TCOON:146:1,2017-02-22T00:30:00Z,28.1324,-97.0345,0.0,2.5,86.0,3.0,'1111122,1111122,1111122' 